Weather in Stepnaya Repyevka

Russia / Ulyanovsk Oblast     54°30′32″N   47°55′26″E
temp.,
°C
wind,
m/s
gust,
m/s
humid.,
%
clouds,
%
prec.,
mm/h
press.,
hPa
HPBL,
m
14 april, wed
wed1401:00+9s33665 0.0 103116
04:00+8s22725 0.0 103111
07:00+8se22768 0.0 103018
10:00+13se45625 0.0 1029243
13:00+16se57635 0.0 1027670
16:00+17se67615 0.0 1026839
19:00+15se48715 0.0 1024230
22:00+11se34835 0.0 102449
15 april, thu
thu1501:00+10sse22850 0.0 102318
04:00+8se22895 0.0 102215
07:00+8se22900 0.0 102218
10:00+13se23700 0.0 1021272
13:00+17se34521 0.0 1020973
16:00+18sse23402 0.0 10191551
19:00+16ese225529 0.0 101836
22:00+12ene116226 0.0 101910
16 april, fri
fri1601:00+11ene11646 0.0 101910
04:00+9nne227371 0.0 101916
07:00+8n379263 0.0 1020135
10:00+11ne677848 0.0 1021485
13:00+13ne676717 0.0 1022663
16:00+14ne776221 0.0 1022758
19:00+11ne7116927 0.0 1022452
22:00+8ne612735 0.0 1024352
17 april, sat
sat1701:00+6ne511815 0.0 1024333
04:00+5ne512835 0.0 1025341
07:00+4ne512745 0.0 1026377
10:00+7ene710545 0.0 1027566
13:00+10ne78400 0.0 1026937
16:00+11ne78330 0.0 10261065
19:00+10ne59431 0.0 1026632
22:00+7ne39540 0.0 1027194
18 april, sun
sun1801:00+5ne39650 0.0 1027178
04:00+4ne37710 0.0 1027118
07:00+4nne36720 0.0 1028159
10:00+9ne57540 0.0 1027713
13:00+11ne67425 0.0 10271338
16:00+12ene674291 0.0 10271561
19:00+10ene5851100 0.0 1027852
22:00+6ne81366100 0.0 1029586